User: anonymous   Login
Location: Bismarck
(46.7731°N, 100.8200°W)
Time: 09:51:12
(UTC-05:00)
Language:

Cosmos 1125 Rocket - Orbit

View from above orbital plane
View from above orbital plane
View from above satellite
View from above satellite

Ground track
Ground track

The orbit data is extracted from the following two-line orbital elements,

1 11511U 79078B   16178.63419756  .00000038  00000-0  21723-4 0  9994
2 11511  74.0369 248.7782 0016345 223.0972 136.8903 14.36715774927555
Epoch (UTC): 26 June 2016 15:13:14
Eccentricity: 0.0016345
inclination: 74.0369°
perigee height: 757 km
apogee height: 781 km
right ascension of ascending node: 248.7782°
argument of perigee: 223.0972°
revolutions per day: 14.36715774
mean anomaly at epoch: 136.8903°
orbit number at epoch: 92755

The dashed part of the orbit path shows where the satellite is in the earth's shadow,  

DLR